Погода в Переволоцком

Россия / Оренбургская область     51°52′31″N   54°11′25″E
темп.,
°C
ветер,
м/с
пор.,
м/с
влажн.,
%
обл.,
%
осадки,
мм/ч
давл.,
гПа
погр.,
м
25 июля, вс
вс2523:00+19с36523 0.0 101089
02:00+19ссз225025 0.0 101136
05:00+17ссз2259100 0.0 101230
08:00+18с466495 0.0 1013281
11:00+23с55445 0.0 10151489
14:00+25ссз553223 0.0 10152603
17:00+25с553089 0.0 10162704
20:00+22с67350 0.0 1018863
26 июля, пн
пн2623:00+16с47430 0.0 1019124
02:00+14с411460 0.0 1021218
05:00+12с33500 0.0 102133
08:00+15с44440 0.0 1021235
11:00+20с33330 0.0 10211252
14:00+23с43265 0.0 10202343
17:00+24ссз54255 0.0 10192637
20:00+21ссз35312 0.0 1020322
27 июля, вт
вт2723:00+16с22414 0.0 102015
02:00+14ссз22435 0.0 102014
05:00+13ссз34500 0.0 102046
08:00+17с46420 0.0 1020218
11:00+22ссз45325 0.0 10192079
14:00+25сз552734 0.0 10182769
17:00+26ссз552416 0.0 10152966
20:00+23ссз683351 0.0 10151028
28 июля, ср
ср2823:00+18зсз33506 0.0 101630
02:00+16зсз33585 0.0 101536
05:00+14ссз39755 0.0 1015191
08:00+16с610730 0.0 1015503
11:00+21с68380 0.0 10151753
14:00+24с66305 0.0 10152342
17:00+25ссз56264 0.0 10142631
20:00+23ссз46303 0.0 1014490
29 июля, чт
чт2923:00+16св22480 0.0 101511
02:00+15ссв01500 0.0 101511
05:00+14ююз11530 0.0 101511
08:00+19зюз22420 0.0 1015176
11:00+25зюз342865 0.0 10141890
14:00+28з4525100 0.0 10132802
17:00+27юз3527100 0.0 10122337
20:00+25всв1235100 0.0 101026